Location: Newark
(35.2161°N, 26.1013°E)
Time: 20:37:37
(UTC+00:00)

BEESAT 2 - Pass Details

Date: 29 January 2020
Orbit: 493 x 534 km, 64.9° (Epoch: 26 February)

Event Time Altitude Azimuth Distance (km) Brightness Sun altitude
Rises 16:54:37 0° 192° (SSW) 2,605 ? -15.4°
Reaches altitude 10° 16:56:51 10° 185° (S) 1,731 ? -15.8°
Maximum altitude 17:00:30 41° 114° (ESE) 762 ? -16.6°
Enters shadow 17:01:18 36° 83° (E) 838 ? -16.7°
